Location: Firdgum
(53.2488°N, 5.5615°E)
Time: 08:17:32
(UTC+00:00)

Cosmos 1869 Rocket - Pass Details

Date: 08 December 2019
Orbit: 606 x 632 km, 82.5° (Epoch: 21 January)

Event Time Altitude Azimuth Distance (km) Brightness Sun altitude
Rises 05:38:34 0° 194° (SSW) 2,852 7.0 -16.7°
Reaches altitude 10° 05:40:46 10° 196° (SSW) 1,954 6.1 -16.4°
Maximum altitude 05:45:06 76° 283° (WNW) 635 3.4 -15.7°
Drops below altitude 10° 05:49:28 10° 9° (N) 1,979 6.1 -15.1°
Sets 05:51:43 0° 11° (N) 2,892 6.9 -14.8°
